Location: Brantley
(31.5822°N, 86.2569°W)
Time: 21:51:18
(UTC+00:00)

A-11 Canister half - Pass Details

Date: 18 February 2026
Orbit: 1525 x 1683 km, 47.3° (Epoch: 10 March)

Event Time Altitude Azimuth Distance (km) Brightness Sun altitude
Rises 01:24:50 0° 295° (WNW) 4,683 12.6 -24.3°
Reaches altitude 10° 01:28:26 10° 306° (NW) 3,693 11.7 -25.1°
Maximum altitude 01:36:21 30° 5° (N) 2,461 10.0 -26.7°
Enters shadow 01:39:32 25° 37° (NE) 2,703 10.0 -27.4°
